Regional Weather Roundup
Issued by NWS

Home | Current Version | Previous Version | Graphics & Text | Print | Product List | Glossary On
Versions: 1 2 3 4 5 6 7 8 9 10 11 12 13 14 15 16 17 18 19 20 21 22 23 24 25 26 27 28 29 30 31 32 33 34 35 36 37 38 39 40 41 42 43 44 45 46 47 48 49 50
000
ASUS45 KCYS 032210
RWRWY

WYOMING REGIONAL WEATHER ROUNDUP
NATIONAL WEATHER SERVICE CHEYENNE WY
400 PM MDT SUN MAY 03 2015

NOTE:  "FAIR" INDICATES FEW OR NO CLOUDS BELOW 12,000 FEET
WITH NO SIGNIFICANT WEATHER AND/OR OBSTRUCTIONS TO VISIBILITY.

WYZ001-032300-
YELLOWSTONE NATIONAL PARK

CITY           SKY/WX    TMP DP  RH WIND       PRES   REMARKS
LK YELLOWSTONE   N/A     53  27  36 VRB5      30.05S
W YELLOWSTONE  NOT AVBL

$$
WYZ002>013-054>058-071-098>099-032300-
NORTHERN WYOMING

CITY           SKY/WX    TMP DP  RH WIND       PRES   REMARKS
JACKSON        NOT AVBL
CODY           FAIR      59  37  44 N14       29.98F
GREYBULL       FAIR      69  31  24 VRB3      29.90F
WORLAND        FAIR      68  35  29 NW8       29.91S
SHERIDAN       PTSUNNY   64  40  41 VRB5      29.97F
BUFFALO        LGT RAIN  61  40  45 E13       29.98F
GILLETTE       PTSUNNY   67  37  33 NE13G22   29.99F
HULETT         FAIR      64  36  34 NE12G18   30.02F
NEWCASTLE      FAIR      66  34  30 SW7       29.97F

$$
WYZ014>020-022>026-101>103-032300-
CENTRAL WYOMING

CITY           SKY/WX    TMP DP  RH WIND       PRES   REMARKS
BIG PINEY      FAIR      55  39  54 VRB3      30.06F
PINEDALE       FAIR      50  39  66 NE7       30.07F
DUBOIS         FAIR      57  28  33 NW8       30.01F
LANDER         CLOUDY    60  38  43 SW15      29.96R
RIVERTON       FAIR      68  31  25 S6        29.94S
CASPER         FAIR      65  34  31 CALM      29.95F
DOUGLAS        PTSUNNY   67  39  35 VRB5      29.97F

$$
WYZ021-027>030-104>119-032300-
SOUTHERN WYOMING

CITY           SKY/WX    TMP DP  RH WIND       PRES   REMARKS
EVANSTON       PTSUNNY   62  34  35 W21G31    30.00F
KEMMERER       LGT RAIN  57  34  41 N14       30.02F
FORT BRIDGER   MOCLDY    61  36  39 SE10      30.04S
ROCK SPRINGS   LGT RAIN  48  40  73 W22G32    30.08R
DIXON          CLOUDY    67  32  27 W5        30.00S THUNDER
RAWLINS        FAIR      67  28  23 W14G22    29.97F
SARATOGA       CLOUDY    63  32  31 N8G16     29.99F
LARAMIE        FAIR      59  33  37 VRB3      30.04F
CHEYENNE       LGT RAIN  51  43  74 E7        30.08S
TORRINGTON     FAIR      69  38  32 E12       29.95S
PINE BLUFFS    FAIR      63  37  39 NE10      29.99R

$$



USA.gov is the U.S. government's official web portal to all federal, state and local government web resources and services.